DH0GMA Weather Reports


Display with metric or nautical units.
time (UTC)temp
F
wind
direction
speed
MPH
gust
MPH
rain 1hr
in
rain 24hr
in
rain mn
in
humidity
%
barometer
mb
20260903163746 75 295 1.0 2.0 0.00 0.00 0.00 51 1020.2
20260903162744 76 160 0.0 3.0 0.00 0.00 0.00 56 1020.1
20260903161744 76 151 1.0 3.0 0.00 0.00 0.00 56 1020.0
20260903160744 76 193 2.0 4.0 0.00 0.00 0.00 54 1020.1
20260903155744 77 150 2.0 7.0 0.00 0.00 0.00 53 1020.2
20260903154744 77 146 2.0 7.0 0.00 0.00 0.00 52 1020.3
20260903153744 77 120 2.0 6.0 0.00 0.00 0.00 55 1020.3
20260903152746 77 168 3.0 7.0 0.00 0.00 0.00 54 1020.4
20260903151746 78 160 5.0 9.0 0.00 0.00 0.00 52 1020.3
20260903150746 78 264 3.0 7.0 0.00 0.00 0.00 53 1020.5
20260903145745 78 260 2.0 8.0 0.00 0.00 0.00 54 1020.2
20260903144745 78 168 2.0 9.0 0.00 0.00 0.00 53 1020.1
20260903143745 78 152 2.0 8.0 0.00 0.00 0.00 53 1020.1
20260903142744 79 118 2.0 8.0 0.00 0.00 0.00 51 1020.2
20260903141744 78 264 2.0 6.0 0.00 0.00 0.00 51 1020.5
20260903140744 78 274 2.0 6.0 0.00 0.00 0.00 51 1020.6
20260903135745 79 207 4.0 9.0 0.00 0.00 0.00 51 1020.6
20260903134744 80 250 3.0 8.0 0.00 0.00 0.00 50 1020.6
20260903133744 78 172 3.0 8.0 0.00 0.00 0.00 51 1020.6
20260903132744 76 176 3.0 8.0 0.00 0.00 0.00 54 1020.9
20260903131744 76 223 3.0 7.0 0.00 0.00 0.00 52 1020.8
20260903130744 77 170 1.0 6.0 0.00 0.00 0.00 51 1021.0
20260903125745 78 138 2.0 8.0 0.00 0.00 0.00 48 1020.9
20260903124745 78 217 3.0 5.0 0.00 0.00 0.00 48 1020.8
20260903123744 78 314 1.0 8.0 0.00 0.00 0.00 49 1020.9
20260903122744 77 266 2.0 6.0 0.00 0.00 0.00 48 1020.7
20260903121746 77 243 2.0 11.0 0.00 0.00 0.00 47 1020.9
20260903120747 78 265 3.0 8.0 0.00 0.00 0.00 46 1020.8
20260903115747 78 272 2.0 5.0 0.00 0.00 0.00 46 1020.9
20260903114747 78 242 3.0 9.0 0.00 0.00 0.00 47 1021.1
20260903113747 78 281 2.0 10.0 0.00 0.00 0.00 48 1021.1
20260903112747 78 273 2.0 9.0 0.00 0.00 0.00 50 1021.2
20260903111746 77 272 1.0 5.0 0.00 0.00 0.00 51 1021.4
20260903110746 76 202 3.0 8.0 0.00 0.00 0.00 53 1021.5
20260903105747 76 249 1.0 10.0 0.00 0.00 0.00 51 1021.6
20260903104747 76 249 4.0 7.0 0.00 0.00 0.00 53 1021.6
20260903103747 76 106 5.0 8.0 0.00 0.00 0.00 51 1021.7
20260903102746 75 316 3.0 8.0 0.00 0.00 0.00 54 1021.7
20260903101747 75 151 3.0 7.0 0.00 0.00 0.00 54 1021.8
20260903100747 74 254 1.0 8.0 0.00 0.00 0.00 54 1021.9
20260903095747 74 258 5.0 9.0 0.00 0.00 0.00 53 1022.2
20260903094747 74 227 2.0 7.0 0.00 0.00 0.00 54 1022.1
20260903093747 73 246 1.0 6.0 0.00 0.00 0.00 56 1022.1
20260903092746 72 218 2.0 8.0 0.00 0.00 0.00 55 1022.1
20260903091746 72 187 1.0 6.0 0.00 0.00 0.00 57 1022.1
20260903090746 72 314 3.0 9.0 0.00 0.00 0.00 55 1022.0
20260903085747 72 209 3.0 7.0 0.00 0.00 0.00 55 1022.2
20260903084747 72 278 2.0 6.0 0.00 0.00 0.00 58 1022.2
20260903083747 71 208 2.0 5.0 0.00 0.00 0.00 63 1022.6
20260903082747 70 144 2.0 5.0 0.00 0.00 0.00 63 1022.4
20260903081746 69 155 1.0 4.0 0.00 0.00 0.00 69 1022.6
20260903080746 68 232 1.0 4.0 0.00 0.00 0.00 70 1022.4
20260903075746 67 263 2.0 4.0 0.00 0.00 0.00 72 1022.2
20260903074747 66 220 1.0 2.0 0.00 0.00 0.00 75 1022.2
20260903073746 65 216 1.0 4.0 0.00 0.00 0.00 80 1022.1
20260903072746 63 191 2.0 4.0 0.00 0.00 0.00 81 1022.2
20260903071746 62 172 1.0 5.0 0.00 0.00 0.00 82 1022.2
20260903070746 61 211 2.0 4.0 0.00 0.00 0.00 82 1022.4
20260903065747 60 183 2.0 3.0 0.00 0.00 0.00 85 1022.4
20260903064747 59 173 1.0 3.0 0.00 0.00 0.00 88 1022.5
20260903063746 58 149 1.0 3.0 0.00 0.00 0.00 89 1022.7
20260903062746 57 138 2.0 3.0 0.00 0.00 0.00 89 1022.8
20260903061747 57 358 1.0 2.0 0.00 0.00 0.00 90 1022.7
20260903060747 56 353 0.0 0.0 0.00 0.00 0.00 91 1022.5
20260903055747 56 351 0.0 0.0 0.00 0.00 0.00 91 1022.4
20260903054747 56 351 0.0 0.0 0.00 0.00 0.00 92 1022.4
20260903053747 55 351 0.0 0.0 0.00 0.00 0.00 92 1022.1
20260903052746 55 351 0.0 0.0 0.00 0.00 0.00 92 1022.1
20260903051746 55 351 0.0 1.0 0.00 0.00 0.00 91 1021.9
20260903050746 55 351 0.0 0.0 0.00 0.00 0.00 91 1021.9
20260903045746 55 351 0.0 0.0 0.00 0.00 0.00 91 1021.9
20260903044747 55 351 0.0 0.0 0.00 0.00 0.00 91 1021.9
20260903043747 55 351 0.0 0.0 0.00 0.00 0.00 91 1022.1
20260903042746 55 351 0.0 0.0 0.00 0.00 0.00 91 1022.0
20260903041746 55 351 0.0 0.0 0.00 0.00 0.00 91 1021.9
20260903040746 55 351 0.0 0.0 0.00 0.00 0.00 91 1021.9
20260903035746 55 351 0.0 0.0 0.00 0.00 0.00 91 1021.8
20260903034746 56 351 0.0 0.0 0.00 0.00 0.00 91 1021.7
20260903033747 56 351 0.0 0.0 0.00 0.00 0.00 91 1021.6
20260903032746 56 351 0.0 0.0 0.00 0.00 0.00 91 1021.8
20260903031746 56 351 0.0 0.0 0.00 0.00 0.00 91 1021.9
20260903030745 56 351 0.0 0.0 0.00 0.00 0.00 90 1021.8
20260903025747 56 351 0.0 0.0 0.00 0.00 0.00 90 1021.8
20260903024747 56 351 0.0 0.0 0.00 0.00 0.00 90 1021.8
20260903023746 56 351 0.0 0.0 0.00 0.00 0.00 90 1022.0
20260903022746 56 351 0.0 0.0 0.00 0.00 0.00 90 1021.9
20260903021745 56 351 0.0 0.0 0.00 0.00 0.00 89 1021.8
20260903020747 57 351 0.0 0.0 0.00 0.00 0.00 89 1021.9
20260903015747 57 351 0.0 0.0 0.00 0.00 0.00 89 1021.8
20260903014746 57 351 0.0 0.0 0.00 0.00 0.00 89 1021.9
20260903013746 57 351 0.0 0.0 0.00 0.00 0.00 88 1022.0
20260903012746 57 351 0.0 0.0 0.00 0.00 0.00 88 1021.9
20260903011746 58 351 0.0 0.0 0.00 0.00 0.00 88 1022.0
20260903010745 58 351 0.0 0.0 0.00 0.00 0.00 88 1021.9
20260903005745 58 351 0.0 0.0 0.00 0.00 0.00 87 1021.9
20260903004745 58 351 0.0 0.0 0.00 0.00 0.00 87 1021.8
20260903003746 58 351 0.0 0.0 0.00 0.00 0.00 87 1021.8
20260903002746 58 351 0.0 0.0 0.00 0.00 0.00 87 1021.7
20260903001745 58 351 0.0 0.0 0.00 0.00 0.00 87 1021.8
20260903000745 58 351 0.0 0.0 0.00 0.00 0.00 86 1021.8
20260902235747 59 351 0.0 0.0 0.00 0.00 0.00 86 1021.8
20260902234747 59 351 0.0 0.0 0.00 0.00 0.00 86 1021.8
20260902233746 59 351 0.0 0.0 0.00 0.00 0.00 84 1021.8
20260902232746 59 351 0.0 0.0 0.00 0.00 0.00 83 1021.8
20260902231746 60 351 0.0 0.0 0.00 0.00 0.00 82 1021.8
20260902230745 60 351 0.0 0.0 0.00 0.00 0.00 82 1021.7
20260902225745 61 351 0.0 0.0 0.00 0.00 0.00 82 1021.8
20260902224747 61 351 0.0 0.0 0.00 0.00 0.00 82 1021.9
20260902223747 61 351 0.0 0.0 0.00 0.00 0.00 82 1022.0
20260902222746 62 351 0.0 0.0 0.00 0.00 0.00 81 1022.0
20260902221746 62 351 0.0 0.0 0.00 0.00 0.00 81 1021.8
20260902220746 62 351 0.0 0.0 0.00 0.00 0.00 81 1021.8
20260902215746 62 351 0.0 0.0 0.00 0.00 0.00 80 1021.8
20260902214746 62 351 0.0 0.0 0.00 0.00 0.00 79 1021.8
20260902213746 62 351 0.0 0.0 0.00 0.00 0.00 78 1021.7
20260902212745 62 351 0.0 0.0 0.00 0.00 0.00 77 1021.5
20260902211745 63 351 0.0 0.0 0.00 0.00 0.00 76 1021.5
20260902210747 63 351 0.0 0.0 0.00 0.00 0.00 75 1021.4
20260902205746 64 351 0.0 0.0 0.00 0.00 0.00 74 1021.3
20260902204747 64 351 0.0 0.0 0.00 0.00 0.00 72 1021.4
20260902203747 65 351 0.0 0.0 0.00 0.00 0.00 71 1021.3
20260902202747 65 351 0.0 0.0 0.00 0.00 0.00 70 1021.2
20260902201746 66 351 0.0 0.0 0.00 0.00 0.00 70 1021.2
20260902200746 66 351 0.0 0.0 0.00 0.00 0.00 69 1021.2
20260902195746 66 351 0.0 0.0 0.00 0.00 0.00 69 1021.0
20260902194746 67 351 0.0 0.0 0.00 0.00 0.00 69 1021.0
20260902193746 67 351 0.0 0.0 0.00 0.00 0.00 69 1020.9
20260902192745 68 351 0.0 0.0 0.00 0.00 0.00 68 1020.9
20260902191747 68 351 0.0 0.0 0.00 0.00 0.00 68 1020.8
20260902190747 69 351 0.0 0.0 0.00 0.00 0.00 67 1020.9
20260902185746 69 351 0.0 0.0 0.00 0.00 0.00 66 1020.6
20260902184746 69 351 0.0 0.0 0.00 0.00 0.00 66 1020.5
20260902183745 70 351 0.0 0.0 0.00 0.00 0.00 65 1020.4
20260902182745 70 351 0.0 0.0 0.00 0.00 0.00 64 1020.2
20260902181745 71 351 0.0 0.0 0.00 0.00 0.00 63 1020.0
20260902180747 71 351 0.0 1.0 0.00 0.00 0.00 62 1020.0
20260902175746 72 351 0.0 2.0 0.00 0.00 0.00 61 1019.9
20260902174746 72 351 0.0 2.0 0.00 0.00 0.00 59 1019.7
20260902173746 73 351 1.0 2.0 0.00 0.00 0.00 59 1019.6
20260902172746 73 351 0.0 4.0 0.00 0.00 0.00 58 1019.4
20260902171745 74 359 1.0 2.0 0.00 0.00 0.00 57 1019.4
20260902170745 74 3 1.0 3.0 0.00 0.00 0.00 55 1019.3
20260902165747 74 16 0.0 3.0 0.00 0.00 0.00 56 1019.3
20260902164746 74 351 1.0 6.0 0.00 0.00 0.00 54 1019.3